Back to catalog

TIANTIE KEJI

AliveScienceSSO
NORAD 63990·PAYLOAD·🇨🇳 China
This satellite name has not been confirmed by official sources yet.

Launched May 14, 2025 from Jiuquan Satellite Launch Center

Loading…

Next Passes (next 24 hours)

TLE

FreshSource: Space-Track

Epoch: Sep 14, 2026, 21:53 UTC

1 63990U 25100J   26257.91200499  .00015696  00000-0  63713-3 0  9991
2 63990  97.3549 332.6901 0006105   0.0969   0.0269 15.24664957 74520

Track TIANTIE KEJI in real time with AllMySat

Download on the App Store